• In Italy
  • List of Countries
  • For 7 days
  • Water Temperature
  • Satellite Maps
  • Weather Map
  • Weather Widgets
  • user-avatar
    Login

    Hourly Weather Hjorring

    Today, 20 April, Friday

    Time Temperature Precipitation Wind Pressure Humidity
    00:00 +12°C° 0 mm 4 mps 766 mmHg 88%
    01:00 +11°C° 0 mm 4 mps 765 mmHg 92%
    02:00 +11°C° 0 mm 4 mps 765 mmHg 93%
    03:00 +11°C° 0 mm 4 mps 764 mmHg 94%
    04:00 +11°C° 0 mm 4 mps 764 mmHg 96%
    05:00 +12°C° 0 mm 4 mps 763 mmHg 93%
    06:00 +12°C° 0 mm 4 mps 763 mmHg 90%
    07:00 +13°C° 0 mm 5 mps 762 mmHg 88%
    08:00 +14°C° 0 mm 5 mps 762 mmHg 82%
    09:00 +15°C° 0 mm 5 mps 761 mmHg 76%
    10:00 +17°C° 0 mm 5 mps 761 mmHg 71%
    11:00 +17°C° 0 mm 5 mps 761 mmHg 69%
    12:00 +19°C° 0 mm 5 mps 760 mmHg 67%
    13:00 +19°C° 0 mm 6 mps 760 mmHg 65%
    14:00 +17°C° 0 mm 6 mps 759 mmHg 65%
    15:00 +15°C° 0 mm 7 mps 759 mmHg 66%
    16:00 +14°C° 0 mm 7 mps 759 mmHg 66%
    17:00 +12°C° 0 mm 8 mps 758 mmHg 71%
    18:00 +11°C° 0 mm 8 mps 758 mmHg 75%
    19:00 +8°C° 0 mm 9 mps 758 mmHg 80%
    20:00 +8°C° 0 mm 9 mps 759 mmHg 82%
    21:00 +7°C° 0 mm 8 mps 759 mmHg 84%
    22:00 +7°C° 0 mm 8 mps 759 mmHg 85%
    23:00 +7°C° 0 mm 8 mps 760 mmHg 81%

    Tomorrow, 21 April, Saturday

    Time Temperature Precipitation Wind Pressure Humidity
    00:00 +6°C° 0 mm 8 mps 760 mmHg 76%
    01:00 +6°C° 0 mm 8 mps 760 mmHg 72%
    02:00 +6°C° 0 mm 8 mps 760 mmHg 74%
    03:00 +6°C° 0 mm 8 mps 760 mmHg 77%
    04:00 +5°C° 0 mm 9 mps 760 mmHg 80%
    05:00 +6°C° 0 mm 9 mps 760 mmHg 80%
    06:00 +6°C° 0 mm 9 mps 761 mmHg 80%
    07:00 +6°C° 0 mm 9 mps 761 mmHg 80%
    08:00 +7°C° 0 mm 9 mps 761 mmHg 76%
    09:00 +9°C° 0 mm 8 mps 761 mmHg 72%
    10:00 +9°C° 0 mm 8 mps 761 mmHg 67%
    11:00 +9°C° 0 mm 8 mps 761 mmHg 66%
    12:00 +10°C° 0 mm 9 mps 761 mmHg 65%
    13:00 +10°C° 0 mm 9 mps 761 mmHg 63%
    14:00 +8°C° 0 mm 9 mps 761 mmHg 65%
    15:00 +8°C° 0 mm 9 mps 761 mmHg 66%
    16:00 +8°C° 0 mm 9 mps 761 mmHg 67%
    17:00 +7°C° 0 mm 9 mps 760 mmHg 70%
    18:00 +6°C° 0 mm 9 mps 760 mmHg 73%
    19:00 +6°C° 0 mm 8 mps 760 mmHg 76%
    20:00 +5°C° 0 mm 8 mps 760 mmHg 79%
    21:00 +5°C° 0 mm 8 mps 760 mmHg 81%
    22:00 +4°C° 0 mm 7 mps 760 mmHg 84%
    23:00 +4°C° 0 mm 7 mps 760 mmHg 85%

    Day after tomorrow, 22 April, Sunday

    Time Temperature Precipitation Wind Pressure Humidity
    00:00 +4°C° 0 mm 7 mps 760 mmHg 86%
    01:00 +4°C° 0 mm 7 mps 760 mmHg 86%
    02:00 +4°C° 0 mm 6 mps 760 mmHg 88%
    03:00 +4°C° 0 mm 6 mps 759 mmHg 89%
    04:00 +3°C° 0 mm 6 mps 759 mmHg 90%
    05:00 +5°C° 0 mm 5 mps 759 mmHg 87%
    06:00 +6°C° 0 mm 5 mps 759 mmHg 84%
    07:00 +6°C° 0 mm 4 mps 759 mmHg 81%
    08:00 +7°C° 0 mm 4 mps 759 mmHg 77%
    09:00 +8°C° 0 mm 4 mps 758 mmHg 73%
    10:00 +10°C° 0 mm 4 mps 758 mmHg 69%
    11:00 +10°C° 0.2 mm 3 mps 758 mmHg 72%
    12:00 +10°C° 0.2 mm 3 mps 758 mmHg 75%
    13:00 +10°C° 0.2 mm 3 mps 758 mmHg 77%
    14:00 +10°C° 0.1 mm 3 mps 757 mmHg 77%
    15:00 +11°C° 0.1 mm 4 mps 757 mmHg 78%
    16:00 +11°C° 0.1 mm 4 mps 756 mmHg 78%
    17:00 +9°C° 0 mm 5 mps 756 mmHg 77%
    18:00 +9°C° 0 mm 5 mps 755 mmHg 76%
    19:00 +8°C° 0 mm 6 mps 755 mmHg 76%
    20:00 +8°C° 0.1 mm 6 mps 754 mmHg 78%
    21:00 +8°C° 0.1 mm 7 mps 754 mmHg 80%
    22:00 +6°C° 0.1 mm 7 mps 753 mmHg 82%
    23:00 +6°C° 0.9 mm 7 mps 753 mmHg 85%

    23 April, Monday

    Time Temperature Precipitation Wind Pressure Humidity
    00:00 +6°C° 0.9 mm 7 mps 752 mmHg 87%
    01:00 +7°C° 0.9 mm 6 mps 751 mmHg 90%
    02:00 +7°C° 0.7 mm 6 mps 751 mmHg 92%
    03:00 +8°C° 0.7 mm 5 mps 750 mmHg 95%
    04:00 +8°C° 0.7 mm 5 mps 749 mmHg 97%
    05:00 +8°C° 0.6 mm 5 mps 749 mmHg 97%
    06:00 +8°C° 0.6 mm 5 mps 748 mmHg 97%
    07:00 +8°C° 0.6 mm 5 mps 748 mmHg 96%
    08:00 +8°C° 0.3 mm 6 mps 748 mmHg 94%
    09:00 +6°C° 0.3 mm 7 mps 748 mmHg 93%
    10:00 +6°C° 0.3 mm 7 mps 748 mmHg 91%
    11:00 +7°C° 0 mm 8 mps 748 mmHg 85%
    12:00 +7°C° 0 mm 9 mps 748 mmHg 80%
    13:00 +8°C° 0 mm 10 mps 748 mmHg 74%
    14:00 +8°C° 0 mm 10 mps 748 mmHg 74%
    15:00 +8°C° 0 mm 10 mps 748 mmHg 74%
    16:00 +8°C° 0 mm 10 mps 748 mmHg 73%
    17:00 +7°C° 0 mm 10 mps 749 mmHg 77%
    18:00 +6°C° 0 mm 10 mps 749 mmHg 81%
    19:00 +5°C° 0 mm 10 mps 749 mmHg 85%
    20:00 +5°C° 0 mm 9 mps 749 mmHg 86%
    21:00 +5°C° 0 mm 9 mps 749 mmHg 88%
    22:00 +3°C° 0 mm 9 mps 749 mmHg 90%
    23:00 +3°C° 0 mm 9 mps 749 mmHg 90%

    24 April, Tuesday

    Time Temperature Precipitation Wind Pressure Humidity
    00:00 +3°C° 0 mm 9 mps 749 mmHg 90%
    01:00 +3°C° 0 mm 9 mps 748 mmHg 90%
    02:00 +3°C° 0 mm 9 mps 748 mmHg 90%
    03:00 +3°C° 0 mm 9 mps 748 mmHg 90%
    04:00 +3°C° 0 mm 9 mps 748 mmHg 90%
    05:00 +3°C° 0 mm 9 mps 749 mmHg 88%
    06:00 +5°C° 0 mm 9 mps 749 mmHg 85%
    07:00 +5°C° 0 mm 10 mps 749 mmHg 83%
    08:00 +6°C° 0 mm 9 mps 749 mmHg 78%
    09:00 +7°C° 0 mm 9 mps 749 mmHg 74%
    10:00 +8°C° 0 mm 9 mps 749 mmHg 70%
    11:00 +8°C° 0 mm 9 mps 749 mmHg 70%
    12:00 +10°C° 0 mm 9 mps 750 mmHg 71%
    13:00 +10°C° 0 mm 8 mps 750 mmHg 72%
    14:00 +9°C° 0 mm 8 mps 749 mmHg 74%
    15:00 +9°C° 0 mm 7 mps 749 mmHg 76%
    16:00 +8°C° 0 mm 7 mps 749 mmHg 79%
    17:00 +8°C° 0 mm 7 mps 749 mmHg 81%
    18:00 +6°C° 0 mm 7 mps 748 mmHg 84%
    19:00 +5°C° 0 mm 7 mps 748 mmHg 86%
    20:00 +5°C° 0.4 mm 6 mps 748 mmHg 88%
    21:00 +4°C° 0.4 mm 6 mps 747 mmHg 90%
    22:00 +5°C° 0.4 mm 5 mps 747 mmHg 92%
    23:00 +3°C° 0.2 mm 5 mps 746 mmHg 92%

    25 April, Wednesday

    Time Temperature Precipitation Wind Pressure Humidity
    00:00 +3°C° 0.2 mm 6 mps 746 mmHg 92%
    01:00 +3°C° 0.2 mm 6 mps 746 mmHg 92%
    02:00 +3°C° 0 mm 7 mps 746 mmHg 91%
    03:00 +3°C° 0 mm 7 mps 746 mmHg 90%
    04:00 +2°C° 0 mm 8 mps 746 mmHg 89%
    05:00 +2°C° 0 mm 8 mps 746 mmHg 87%
    06:00 +3°C° 0 mm 9 mps 746 mmHg 86%
    07:00 +3°C° 0 mm 9 mps 746 mmHg 84%
    08:00 +5°C° 0 mm 9 mps 746 mmHg 82%
    09:00 +5°C° 0 mm 9 mps 747 mmHg 80%
    10:00 +6°C° 0 mm 9 mps 747 mmHg 78%
    11:00 +6°C° 0 mm 9 mps 747 mmHg 74%
    12:00 +7°C° 0 mm 10 mps 747 mmHg 71%
    13:00 +7°C° 0 mm 10 mps 747 mmHg 67%
    14:00 +7°C° 0 mm 10 mps 747 mmHg 67%
    15:00 +7°C° 0 mm 10 mps 747 mmHg 67%
    16:00 +7°C° 0 mm 11 mps 748 mmHg 67%
    17:00 +6°C° 0 mm 10 mps 748 mmHg 72%
    18:00 +5°C° 0 mm 10 mps 748 mmHg 78%
    19:00 +5°C° 0 mm 9 mps 748 mmHg 83%
    20:00 +3°C° 0 mm 9 mps 748 mmHg 85%
    21:00 +3°C° 0 mm 9 mps 748 mmHg 86%
    22:00 +3°C° 0 mm 9 mps 748 mmHg 88%
    23:00 +3°C° 0 mm 9 mps 748 mmHg 87%
    Show more